Guadalajara Don Miguel, Mexico

12:39 PM CDT on April 19, 2018 (GMT -0500)
Guadalajara Don Miguel

Weather History for MMGL - January, 2013

Change the Weather History Date:

Friday, January 25, 2013

  Actual Average Record
Temperature  
Mean Temperature 59 °F -  
Max Temperature 77 °F 76 °F 84 °F (2000)
Min Temperature 41 °F 40 °F 28 °F (1999)
Degree Days  
Heating Degree Days 6    
Growing Degree Days 9 (Base 50)    
Moisture  
Dew Point 36 °F    
Average Humidity 51    
Maximum Humidity 87    
Minimum Humidity 14    
Precipitation  
Precipitation 0.00 in - - ()
Sea Level Pressure  
Sea Level Pressure 30.17 in    
Wind  
Wind Speed 2 mph ()    
Max Wind Speed 12 mph    
Max Gust Speed -    
Visibility 9.0 miles    
Events      
Averages and records for this station are not official NWS values.
T = Trace of Precipitation, MM = Missing Value Source: Averaged Metar Reports

Daily Weather History Graph

Daily Weather History Graph

Search for Another Location

Airport or City:

Astronomy

Jan. 25, 2013 Rise Set
Actual Time 7:31 AM CST 6:40 PM CST
Civil Twilight 7:07 AM CST 7:03 PM CST
Nautical Twilight 6:41 AM CST 7:30 PM CST
Astronomical Twilight 6:14 AM CST 7:57 PM CST
Moon 5:38 PM CST (1/25) 6:11 AM CST (1/25)
Length of Visible Light 11h 55m
Length of Day
11h 09m
Waxing Gibbous, 98% of the Moon is Illuminated
Jan 25
Waxing Gibbous
Jan 26
Full
Feb 3
Last Quarter
Feb 10
New
Feb 17
First Quarter

Hourly Weather History & Observations

Time (CST) Temp. Windchill Dew Point Humidity Pressure Visibility Wind Dir Wind Speed Gust Speed Precip Events Conditions
12:51 AM 50.0 °F - 41.0 °F 71% 30.27 in 10.0 mi Calm Calm - N/A   Clear
1:55 AM 46.4 °F - 41.0 °F 81% 30.28 in 10.0 mi Calm Calm - N/A   Clear
2:52 AM 46.4 °F 45.2 °F 41.0 °F 81% 30.05 in 8.0 mi SSW 3.5 mph - N/A   Clear
3:53 AM 44.6 °F - 39.2 °F 81% 30.27 in 8.0 mi Calm Calm - N/A   Clear
4:51 AM 42.8 °F - 39.2 °F 87% 30.27 in 8.0 mi Calm Calm - N/A   Clear
5:53 AM 41.0 °F - 37.4 °F 87% 30.09 in 8.0 mi Calm Calm - N/A   Clear
6:47 AM 41.0 °F - 37.4 °F 87% 30.30 in 8.0 mi Calm Calm - N/A   Clear
7:47 AM 41.0 °F - 37.4 °F 87% 30.31 in 7.0 mi Calm Calm - N/A   Clear
8:45 AM 51.8 °F - 41.0 °F 67% 30.15 in 6.0 mi Calm Calm - N/A   Clear
9:42 AM 59.0 °F - 41.0 °F 51% 30.34 in 6.0 mi Calm Calm - N/A   Clear
10:48 AM 64.4 °F - 39.2 °F 40% 30.34 in 8.0 mi Calm Calm - N/A   Clear
11:46 AM 68.0 °F - 37.4 °F 33% 30.09 in 8.0 mi ESE 8.1 mph - N/A   Clear
12:47 PM 71.6 °F - 37.4 °F 29% 30.27 in 10.0 mi Calm Calm - N/A   Clear
1:42 PM 75.2 °F - 35.6 °F 24% 30.23 in 10.0 mi Calm Calm - N/A   Clear
2:45 PM 77.0 °F - 28.4 °F 17% 29.95 in 10.0 mi East 11.5 mph - N/A   Clear
3:45 PM 77.0 °F - 28.4 °F 17% 30.17 in 10.0 mi South 4.6 mph - N/A   Clear
4:56 PM 77.0 °F - 26.6 °F 16% 30.15 in 10.0 mi NE 10.4 mph - N/A   Clear
5:44 PM 77.0 °F - 24.8 °F 14% 29.76 in 10.0 mi NNW 6.9 mph - N/A   Clear
6:46 PM 71.6 °F - 26.6 °F 19% 30.17 in 10.0 mi WNW 3.5 mph - N/A   Clear
7:46 PM 60.8 °F - 33.8 °F 36% 30.17 in 10.0 mi Calm Calm - N/A   Clear
8:48 PM 57.2 °F - 33.8 °F 41% 30.02 in 10.0 mi South 3.5 mph - N/A   Clear
9:42 PM 57.2 °F - 33.8 °F 41% 30.20 in 10.0 mi South 3.5 mph - N/A   Clear
10:42 PM 51.8 °F - 37.4 °F 58% 30.21 in 10.0 mi SE 3.5 mph - N/A   Clear
11:44 PM 51.8 °F - 37.4 °F 58% 29.99 in 10.0 mi Calm Calm - N/A   Clear